Time,TemperatureF,DewpointF,PressureIn,WindDirection,WindDirectionDegrees,WindSpeedMPH,WindSpeedGustMPH,Humidity,HourlyPrecipIn,Conditions,Clouds,dailyrainin,SolarRadiationWatts/m^2,SoftwareType,DateUTC
2013-06-11 00:02:00,85.0,44.0,-100.00,South,182,4.0,6.0,24,0.00,,,0.00,1.000000,,2013-06-11 07:02:00,
2013-06-11 00:12:00,85.0,44.0,-100.00,South,182,4.0,6.0,24,0.00,,,0.00,1.000000,,2013-06-11 07:12:00,
2013-06-11 00:42:00,84.0,41.0,-100.00,SW,214,5.0,8.0,22,0.00,,,0.00,1.000000,,2013-06-11 07:42:00,
2013-06-11 00:52:00,84.0,41.0,-100.00,SW,214,5.0,8.0,22,0.00,,,0.00,1.000000,,2013-06-11 07:52:00,
2013-06-11 01:02:00,84.0,41.0,-100.00,SW,214,5.0,8.0,22,0.00,,,0.00,1.000000,,2013-06-11 08:02:00,
2013-06-11 01:12:00,84.0,41.0,-100.00,SW,214,5.0,8.0,22,0.00,,,0.00,1.000000,,2013-06-11 08:12:00,
2013-06-11 01:32:00,82.0,38.0,-100.00,SSW,200,3.0,7.0,21,0.00,,,0.00,1.000000,,2013-06-11 08:32:00,
2013-06-11 01:42:00,82.0,38.0,-100.00,SSW,200,3.0,7.0,21,0.00,,,0.00,1.000000,,2013-06-11 08:42:00,
2013-06-11 01:52:00,82.0,38.0,-100.00,SSW,200,3.0,7.0,21,0.00,,,0.00,1.000000,,2013-06-11 08:52:00,
2013-06-11 02:02:00,82.0,38.0,-100.00,SSW,200,3.0,7.0,21,0.00,,,0.00,1.000000,,2013-06-11 09:02:00,
2013-06-11 02:12:00,82.0,38.0,-100.00,SSW,200,3.0,7.0,21,0.00,,,0.00,1.000000,,2013-06-11 09:12:00,
2013-06-11 02:33:00,79.0,40.0,-100.00,SW,214,1.0,7.0,25,0.00,,,0.00,1.000000,,2013-06-11 09:33:00,
2013-06-11 02:43:00,79.0,40.0,-100.00,SW,214,1.0,7.0,25,0.00,,,0.00,1.000000,,2013-06-11 09:43:00,
2013-06-11 02:53:00,79.0,40.0,-100.00,SW,214,1.0,7.0,25,0.00,,,0.00,1.000000,,2013-06-11 09:53:00,
2013-06-11 03:03:00,79.0,40.0,-100.00,SW,214,1.0,7.0,25,0.00,,,0.00,1.000000,,2013-06-11 10:03:00,
2013-06-11 03:12:00,79.0,40.0,-100.00,SW,214,1.0,7.0,25,0.00,,,0.00,1.000000,,2013-06-11 10:12:00,
2013-06-11 03:33:00,79.0,40.0,-100.00,SSW,202,0.0,4.0,25,0.00,,,0.00,1.000000,,2013-06-11 10:33:00,
2013-06-11 03:43:00,79.0,40.0,-100.00,SSW,202,0.0,4.0,25,0.00,,,0.00,1.000000,,2013-06-11 10:43:00,
2013-06-11 03:52:00,79.0,40.0,-100.00,SSW,202,0.0,4.0,25,0.00,,,0.00,1.000000,,2013-06-11 10:52:00,
2013-06-11 04:02:00,79.0,40.0,-100.00,SSW,202,0.0,4.0,25,0.00,,,0.00,1.000000,,2013-06-11 11:02:00,
2013-06-11 04:12:00,79.0,40.0,-100.00,SSW,202,0.0,4.0,25,0.00,,,0.00,1.000000,,2013-06-11 11:12:00,
2013-06-11 04:32:00,76.0,41.0,-100.00,SSW,201,2.0,4.0,29,0.00,,,-99.99,1.000000,,2013-06-11 11:32:00,
2013-06-11 04:42:00,76.0,41.0,-100.00,SSW,201,2.0,4.0,29,0.00,,,-99.99,1.000000,,2013-06-11 11:42:00,
2013-06-11 04:52:00,76.0,41.0,-100.00,SSW,201,2.0,4.0,29,0.00,,,-99.99,1.000000,,2013-06-11 11:52:00,
2013-06-11 05:02:00,76.0,41.0,-100.00,SSW,201,2.0,4.0,29,0.00,,,-99.99,1.000000,,2013-06-11 12:02:00,
2013-06-11 05:12:00,76.0,41.0,-100.00,SSW,201,2.0,4.0,29,0.00,,,-99.99,1.000000,,2013-06-11 12:12:00,
2013-06-11 05:32:00,74.0,44.0,-100.00,NNW,329,5.0,7.0,34,0.00,,,-99.99,1.000000,,2013-06-11 12:32:00,
2013-06-11 05:42:00,74.0,44.0,-100.00,NNW,329,5.0,7.0,34,0.00,,,-99.99,1.000000,,2013-06-11 12:42:00,
2013-06-11 05:52:00,74.0,44.0,-100.00,NNW,329,5.0,7.0,34,0.00,,,-99.99,1.000000,,2013-06-11 12:52:00,
2013-06-11 06:02:00,74.0,44.0,-100.00,NNW,329,5.0,7.0,34,0.00,,,-99.99,1.000000,,2013-06-11 13:02:00,
2013-06-11 06:11:00,74.0,44.0,-100.00,NNW,329,5.0,7.0,34,0.00,,,-99.99,1.000000,,2013-06-11 13:11:00,
2013-06-11 06:32:00,73.0,47.0,-100.00,SE,135,6.0,10.0,39,0.00,,,0.00,19.000000,,2013-06-11 13:32:00,
2013-06-11 06:42:00,73.0,47.0,-100.00,SE,135,6.0,10.0,39,0.00,,,0.00,19.000000,,2013-06-11 13:42:00,
2013-06-11 06:52:00,73.0,47.0,-100.00,SE,135,6.0,10.0,39,0.00,,,0.00,19.000000,,2013-06-11 13:52:00,
2013-06-11 07:02:00,73.0,47.0,-100.00,SE,135,6.0,10.0,39,0.00,,,0.00,19.000000,,2013-06-11 14:02:00,
2013-06-11 07:12:00,73.0,47.0,-100.00,SE,135,6.0,10.0,39,0.00,,,0.00,19.000000,,2013-06-11 14:12:00,
2013-06-11 07:32:00,80.0,43.0,-100.00,SSW,195,2.0,8.0,27,0.00,,,-99.99,163.000000,,2013-06-11 14:32:00,
2013-06-11 07:42:00,80.0,43.0,-100.00,SSW,195,2.0,8.0,27,0.00,,,-99.99,163.000000,,2013-06-11 14:42:00,
2013-06-11 07:53:00,80.0,43.0,-100.00,SSW,195,2.0,8.0,27,0.00,,,-99.99,163.000000,,2013-06-11 14:53:00,
2013-06-11 08:02:00,80.0,43.0,-100.00,SSW,195,2.0,8.0,27,0.00,,,-99.99,163.000000,,2013-06-11 15:02:00,
2013-06-11 08:12:00,80.0,43.0,-100.00,SSW,195,2.0,8.0,27,0.00,,,-99.99,163.000000,,2013-06-11 15:12:00,
2013-06-11 08:33:00,85.0,44.0,-100.00,South,169,5.0,7.0,24,0.00,,,0.00,400.000000,,2013-06-11 15:33:00,
2013-06-11 08:43:00,85.0,44.0,-100.00,South,169,5.0,7.0,24,0.00,,,0.00,400.000000,,2013-06-11 15:43:00,
2013-06-11 08:53:00,85.0,44.0,-100.00,South,169,5.0,7.0,24,0.00,,,0.00,400.000000,,2013-06-11 15:53:00,
2013-06-11 09:02:00,85.0,44.0,-100.00,South,169,5.0,7.0,24,0.00,,,0.00,400.000000,,2013-06-11 16:02:00,
2013-06-11 09:12:00,85.0,44.0,-100.00,South,169,5.0,7.0,24,0.00,,,0.00,400.000000,,2013-06-11 16:12:00,
2013-06-11 09:33:00,91.0,43.0,-100.00,South,187,5.0,10.0,19,0.00,,,0.00,611.000000,,2013-06-11 16:33:00,
2013-06-11 09:42:00,91.0,43.0,-100.00,South,187,5.0,10.0,19,0.00,,,0.00,611.000000,,2013-06-11 16:42:00,
2013-06-11 09:52:00,91.0,43.0,-100.00,South,187,5.0,10.0,19,0.00,,,0.00,611.000000,,2013-06-11 16:52:00,
2013-06-11 10:02:00,91.0,43.0,-100.00,South,187,5.0,10.0,19,0.00,,,0.00,611.000000,,2013-06-11 17:02:00,
2013-06-11 10:12:00,91.0,43.0,-100.00,South,187,5.0,10.0,19,0.00,,,0.00,611.000000,,2013-06-11 17:12:00,
2013-06-11 10:32:00,97.0,36.0,-100.00,SSE,161,5.0,9.0,12,0.00,,,0.00,798.000000,,2013-06-11 17:32:00,
2013-06-11 10:43:00,97.0,36.0,-100.00,SSE,161,5.0,9.0,12,0.00,,,0.00,798.000000,,2013-06-11 17:43:00,
2013-06-11 10:52:00,97.0,36.0,-100.00,SSE,161,5.0,9.0,12,0.00,,,0.00,798.000000,,2013-06-11 17:52:00,
2013-06-11 11:02:00,97.0,36.0,-100.00,SSE,161,5.0,9.0,12,0.00,,,0.00,798.000000,,2013-06-11 18:02:00,
2013-06-11 11:12:00,97.0,36.0,-100.00,SSE,161,5.0,9.0,12,0.00,,,0.00,798.000000,,2013-06-11 18:12:00,
2013-06-11 11:33:00,101.0,32.0,-100.00,SSW,199,4.0,8.0,9,0.00,,,0.00,942.000000,,2013-06-11 18:33:00,
2013-06-11 11:43:00,101.0,32.0,-100.00,SSW,199,4.0,8.0,9,0.00,,,0.00,942.000000,,2013-06-11 18:43:00,
2013-06-11 11:52:00,101.0,32.0,-100.00,SSW,199,4.0,8.0,9,0.00,,,0.00,942.000000,,2013-06-11 18:52:00,
2013-06-11 12:02:00,101.0,32.0,-100.00,SSW,199,4.0,8.0,9,0.00,,,0.00,942.000000,,2013-06-11 19:02:00,
2013-06-11 12:12:00,101.0,32.0,-100.00,SSW,199,4.0,8.0,9,0.00,,,0.00,942.000000,,2013-06-11 19:12:00,
2013-06-11 12:33:00,103.0,27.0,-100.00,NW,315,4.0,8.0,7,0.00,,,0.00,1030.000000,,2013-06-11 19:33:00,
2013-06-11 12:42:00,103.0,27.0,-100.00,NW,315,4.0,8.0,7,0.00,,,0.00,1030.000000,,2013-06-11 19:42:00,
2013-06-11 12:52:00,103.0,27.0,-100.00,NW,315,4.0,8.0,7,0.00,,,0.00,1030.000000,,2013-06-11 19:52:00,
2013-06-11 13:02:00,103.0,27.0,-100.00,NW,315,4.0,8.0,7,0.00,,,0.00,1030.000000,,2013-06-11 20:02:00,
2013-06-11 13:12:00,103.0,27.0,-100.00,NW,315,4.0,8.0,7,0.00,,,0.00,1030.000000,,2013-06-11 20:12:00,
2013-06-11 13:42:00,106.0,29.0,-100.00,NW,310,4.0,10.0,7,0.00,,,0.00,1089.000000,,2013-06-11 20:42:00,
2013-06-11 13:52:00,106.0,29.0,-100.00,NW,310,4.0,10.0,7,0.00,,,0.00,1089.000000,,2013-06-11 20:52:00,
2013-06-11 14:02:00,106.0,29.0,-100.00,NW,310,4.0,10.0,7,0.00,,,0.00,1089.000000,,2013-06-11 21:02:00,
2013-06-11 14:12:00,106.0,29.0,-100.00,NW,310,4.0,10.0,7,0.00,,,0.00,1089.000000,,2013-06-11 21:12:00,
2013-06-11 14:42:00,107.0,30.0,-100.00,WNW,296,6.0,9.0,7,0.00,,,0.00,1022.000000,,2013-06-11 21:42:00,
2013-06-11 14:53:00,107.0,30.0,-100.00,WNW,296,6.0,9.0,7,0.00,,,0.00,1022.000000,,2013-06-11 21:53:00,
2013-06-11 15:03:00,107.0,30.0,-100.00,WNW,296,6.0,9.0,7,0.00,,,0.00,1022.000000,,2013-06-11 22:03:00,
2013-06-11 15:12:00,107.0,30.0,-100.00,WNW,296,6.0,9.0,7,0.00,,,0.00,1022.000000,,2013-06-11 22:12:00,
2013-06-11 15:42:00,106.0,38.0,-100.00,West,280,6.0,9.0,10,0.00,,,0.00,667.000000,,2013-06-11 22:42:00,
2013-06-11 15:52:00,106.0,38.0,-100.00,West,280,6.0,9.0,10,0.00,,,0.00,667.000000,,2013-06-11 22:52:00,
2013-06-11 16:02:00,106.0,38.0,-100.00,West,280,6.0,9.0,10,0.00,,,0.00,667.000000,,2013-06-11 23:02:00,
2013-06-11 16:12:00,106.0,38.0,-100.00,West,280,6.0,9.0,10,0.00,,,0.00,667.000000,,2013-06-11 23:12:00,
2013-06-11 16:42:00,105.0,40.0,-100.00,West,259,6.0,8.0,11,0.00,,,0.00,477.000000,,2013-06-11 23:42:00,
2013-06-11 16:52:00,105.0,40.0,-100.00,West,259,6.0,8.0,11,0.00,,,0.00,477.000000,,2013-06-11 23:52:00,
2013-06-11 17:02:00,105.0,40.0,-100.00,West,259,6.0,8.0,11,0.00,,,0.00,477.000000,,2013-06-12 00:02:00,
2013-06-11 17:12:00,105.0,40.0,-100.00,West,259,6.0,8.0,11,0.00,,,0.00,477.000000,,2013-06-12 00:12:00,
2013-06-11 18:32:00,103.0,41.0,-100.00,WNW,286,4.0,6.0,12,-99.99,,,0.00,237.000000,,2013-06-12 01:32:00,
2013-06-11 18:42:00,103.0,41.0,-100.00,WNW,286,4.0,6.0,12,-99.99,,,0.00,237.000000,,2013-06-12 01:42:00,
2013-06-11 18:52:00,103.0,41.0,-100.00,WNW,286,4.0,6.0,12,-99.99,,,0.00,237.000000,,2013-06-12 01:52:00,
2013-06-11 19:02:00,103.0,41.0,-100.00,WNW,286,4.0,6.0,12,-99.99,,,0.00,237.000000,,2013-06-12 02:02:00,
2013-06-11 19:12:00,103.0,41.0,-100.00,WNW,286,4.0,6.0,12,-99.99,,,0.00,237.000000,,2013-06-12 02:12:00,
2013-06-11 19:32:00,100.0,40.0,-100.00,West,280,0.0,5.0,13,0.00,,,0.00,82.000000,,2013-06-12 02:32:00,
2013-06-11 19:42:00,100.0,40.0,-100.00,West,280,0.0,5.0,13,0.00,,,0.00,82.000000,,2013-06-12 02:42:00,
2013-06-11 19:52:00,100.0,40.0,-100.00,West,280,0.0,5.0,13,0.00,,,0.00,82.000000,,2013-06-12 02:52:00,
2013-06-11 20:02:00,100.0,40.0,-100.00,West,280,0.0,5.0,13,0.00,,,0.00,82.000000,,2013-06-12 03:02:00,
2013-06-11 20:12:00,100.0,40.0,-100.00,West,280,0.0,5.0,13,0.00,,,0.00,82.000000,,2013-06-12 03:12:00,
2013-06-11 20:43:00,97.0,42.0,-100.00,WNW,290,0.0,0.0,15,0.00,,,0.00,6.000000,,2013-06-12 03:43:00,
2013-06-11 20:53:00,97.0,42.0,-100.00,WNW,290,0.0,0.0,15,0.00,,,0.00,6.000000,,2013-06-12 03:53:00,
2013-06-11 21:02:00,97.0,42.0,-100.00,WNW,290,0.0,0.0,15,0.00,,,0.00,6.000000,,2013-06-12 04:02:00,
2013-06-11 21:12:00,97.0,42.0,-100.00,WNW,290,0.0,0.0,15,0.00,,,0.00,6.000000,,2013-06-12 04:12:00,
2013-06-11 21:34:00,96.0,39.0,-100.00,NW,307,0.0,0.0,14,0.00,,,0.00,1.000000,,2013-06-12 04:34:00,
2013-06-11 21:42:00,96.0,39.0,-100.00,NW,307,0.0,0.0,14,0.00,,,0.00,1.000000,,2013-06-12 04:42:00,
2013-06-11 21:52:00,96.0,39.0,-100.00,NW,307,0.0,0.0,14,0.00,,,0.00,1.000000,,2013-06-12 04:52:00,
2013-06-11 22:02:00,96.0,39.0,-100.00,NW,307,0.0,0.0,14,0.00,,,0.00,1.000000,,2013-06-12 05:02:00,
2013-06-11 22:12:00,96.0,39.0,-100.00,NW,307,0.0,0.0,14,0.00,,,0.00,1.000000,,2013-06-12 05:12:00,
2013-06-11 22:42:00,92.0,44.0,-100.00,South,187,4.0,10.0,19,0.00,,,0.00,1.000000,,2013-06-12 05:42:00,
2013-06-11 22:52:00,92.0,44.0,-100.00,South,187,4.0,10.0,19,0.00,,,0.00,1.000000,,2013-06-12 05:52:00,
2013-06-11 23:02:00,92.0,44.0,-100.00,South,187,4.0,10.0,19,0.00,,,0.00,1.000000,,2013-06-12 06:02:00,
2013-06-11 23:12:00,92.0,44.0,-100.00,South,187,4.0,10.0,19,0.00,,,0.00,1.000000,,2013-06-12 06:12:00,
2013-06-11 23:42:00,90.0,47.0,-100.00,SSE,159,6.0,9.0,23,0.00,,,0.00,1.000000,,2013-06-12 06:42:00,
2013-06-11 23:52:00,90.0,47.0,-100.00,SSE,159,6.0,9.0,23,0.00,,,0.00,1.000000,,2013-06-12 06:52:00,